Location: Saint Louis
(38.6272°N, 90.1978°W)
Time: 15:29:24
(UTC-05:00)

ISS - Pass Details

Date: 27 August 2013
Orbit: 401 x 404 km, 51.6° (Epoch: 24 July)

Event Time Altitude Azimuth Distance (km) Brightness Sun altitude
Rises 20:44:57 0° 294° (WNW) 2,312 2.6 -13.2°
Reaches altitude 10° 20:47:26 10° 276° (W) 1,450 0.7 -13.7°
Maximum altitude 20:49:47 19° 229° (SW) 1,040 -1.0 -14.1°
Drops below altitude 10° 20:52:08 10° 182° (S) 1,448 -0.8 -14.5°
Enters shadow 20:52:22 - 180° (S) 1,517 -0.7 -14.5°
